Погода в Навережье

Россия / Псковская область     57°23′10″N   29°29′28″E
темп.,
°C
ветер,
м/с
пор.,
м/с
влажн.,
%
обл.,
%
осадки,
мм/ч
давл.,
гПа
погр.,
м
30 июня, чт
чт3000:00+17в22940 0.0 102015
03:00+15вюв11680 0.0 102014
06:00+16вюв11740 0.0 102016
09:00+21всв23490 0.0 1020336
12:00+24всв23350 0.0 10211137
15:00+26всв33310 0.0 10201650
18:00+25всв22380 0.0 10201489
21:00+19всв12644 0.0 102014
1 июля, пт
пт100:00+16в11580 0.0 102111
03:00+15в116317 0.0 102111
06:00+16в22699 0.0 102243
09:00+22в345118 0.0 1022295
12:00+26вюв2339100 0.0 10211130
15:00+27в2443100 0.0 10211610
18:00+27в1351100 0.0 10211718
21:00+21зюз007595 0.0 102111
2 июля, сб
сб200:00+20в1169100 0.0 102111
03:00+18юв1173100 0.0 102111
06:00+19юз117998 0.0 102211
09:00+24ююз1260100 0.0 1021325
12:00+26ююз2351100 0.0 1021860
15:00+28юз2340100 0.0 10201821
18:00+27ююз2451100 0.0 10191462
21:00+22ююв2274100 0.0 101920
3 июля, вс
вс300:00+19ююз2276100 0.0 101939
03:00+18юз238283 0.0 101852
06:00+19юз248255 0.0 101894
09:00+24юз236499 0.0 1018430
12:00+27зюз225183 0.0 10171552
15:00+28з324878 0.1 10171814
18:00+22зсз358782 1.4 101799
21:00+20зсз269259 1.9 1017130
4 июля, пн
пн400:00+18сз249891 1.8 101779
03:00+17ссв249968 1.8 101777
06:00+17с139985 0.8 1017123
09:00+19св2387100 1.0 1017255
12:00+25всв116296 0.0 1016952
15:00+23з1286100 3.0 1016391
18:00+22зсз1386100 2.1 1015410
21:00+19св1195100 3.2 101519